COSMOS 2463 (36519 NORAD) Tracking and Keplerian Element Data

This shows tracking and keplerian element data for the satellite.

Feedback or suggestion? Click here.




ElementValue
Catalog36519
NameCOSMOS 2463
Epoch Orbit73960
Epoch Day34.75012191
Epoch Year2025
RAAN255.9209
Inclination82.9572
Eccentricity0.0037424
Argument of Perigee73.7331
Mean Anonmoly359.4008
Mean Motion13.71610449
Decay Rate7.4E-07
L11 36519U 10017A 25034.75012191 .00000074 00000+0 64290-4 0 9998
L22 36519 82.9572 255.9209 0037424 73.7331 359.4008 13.71610449739605



Live tracking and technical data element details for COSMOS 2463 (NORAD 36519). COSMOS 2463 can be tracked NOW for your location showing map with azimuth and elevation plus other details from your city location.







IsCatalogInMostPopularTable: catalog: 36519, numindb: 407
Update: records affected: 1



GetName: 36519 COSMOS 2463

Hit Count: updated at: Thu, 15 May 2025 20:21:32 GMT